[[{"header":{"parameterUnit":"m.s-1","parameterCategory":2,"la1":30.2992,"la2":30.254,"lo1":-89.0895,"lo2":-89.0443,"dy":0.0025,"dx":0.0025,"nx":19,"ny":19,"refTime":"2026-04-04T09:00:00:Z","depth":"0","parameterNumber":2,"parameterNumberName":"U-component_of_CURRENTS"},"data":[0,0,0,0.2037,0.2039,0.2169,0.217,0.2359,0.2361,0,0,0,0,0,0,0,0,0,0,0,0.1993,0.1994,0.2037,0.2039,0.2169,0.217,0.2359,0.2361,0,0,0,0,0,0,0,0,0,0,0,0.1993,0.1994,0.1995,0.204,0.2169,0.217,0.2359,0.2258,0,0,0,0,0,0,0,0,0,0,0.213,0.2081,0.1994,0.1995,0.2041,0.2169,0.217,0.2253,0.2264,0.2304,0,0.232,0,0.2341,0.2373,0.2374,0,0,0,0.2051,0.2071,0.2106,0.1995,0.2042,0.2168,0.2114,0.2259,0.2272,0.2319,0.2322,0.2329,0.2344,0.2374,0.2375,0.2529,0.253,0,0,0.2044,0.2022,0.2097,0.2114,0.2071,0.2109,0.2118,0.2266,0.2279,0.2323,0.2334,0.2347,0.2375,0.2377,0.2529,0.253,0,0,0,0.2016,0.2017,0.2047,0.2106,0.2125,0.2113,0.2122,0.2273,0.2282,0.2336,0.2349,0.2376,0.2379,0.2529,0.2529,0.2516,0,0,0,0.2012,0.2,0.2044,0.2033,0.2122,0.2197,0.2125,0.2272,0.229,0.2348,0.2377,0.238,0.2528,0.2529,0.2516,0.2503,0,0,0,0.1988,0.1997,0.201,0.2031,0.2082,0.2195,0.2214,0.2276,0.2297,0.2374,0.2381,0.2528,0.2529,0.2515,0.2502,0.2496,0,0,0,0.1964,0.1986,0.201,0.205,0.208,0.2185,0.2213,0.2305,0.2372,0.2377,0.2529,0.2529,0.2515,0.2502,0.2496,0.2432,0.2427,0,0,0.1976,0.1987,0.2013,0.2037,0.2123,0.2168,0.2272,0.2366,0.2394,0.2483,0.2487,0.2516,0.2502,0.2496,0.2477,0.247,0,0,0,0.2007,0.202,0.2056,0.2108,0.2189,0.227,0.236,0.2391,0.2462,0.2435,0.2536,0.2528,0.2523,0.2486,0.2481,0.2422,0.2533,0.2533,0.2533,0.1977,0.2027,0.2077,0.2153,0.2228,0.2352,0.2409,0.2464,0.2501,0.2517,0.2532,0.2538,0.2499,0.2494,0.2435,0.2553,0.2553,0.2553,0.2553,0.1979,0.1998,0.2077,0.2134,0.2236,0.2329,0.2457,0.2487,0.2533,0.2543,0.254,0.2493,0.2488,0.2427,0.2553,0.2553,0.2553,0.2553,0.2553,0.1935,0.195,0.1986,0.2071,0.2171,0.231,0.2385,0.247,0.2512,0.2517,0.2477,0.2477,0.2409,0.2516,0.2516,0.2516,0.2515,0.2515,0.2515,0.1863,0.1906,0.1922,0.2017,0.2068,0.2182,0.2336,0.2378,0.2433,0.2457,0.2456,0.2403,0.2526,0.2511,0.2514,0.2514,0.2515,0.2515,0.2515,0.1811,0.1819,0.1845,0.1875,0.1985,0.2023,0.2185,0.2264,0.232,0.2323,0.2311,0.2425,0.242,0.2424,0.2407,0.2384,0.2384,0.2384,0.2384,0.1756,0.1771,0.1774,0.1798,0.1859,0.1948,0.194,0.2044,0.2155,0.2175,0.2225,0.2212,0.222,0.2203,0.2212,0.2191,0.2113,0.2113,0.2112,0.1725,0.1735,0.1711,0.1735,0.1792,0.1831,0.1773,0.1782,0.1965,0.2098,0.2156,0.2167,0.2147,0.2164,0.214,0.2157,0.2125,0,0]},{"header":{"parameterUnit":"m.s-1","parameterCategory":2,"la1":30.2992,"la2":30.254,"lo1":-89.0895,"lo2":-89.0443,"dy":0.0025,"dx":0.0025,"nx":19,"ny":19,"refTime":"2026-04-04T09:00:00:Z","depth":"0","parameterNumber":3,"parameterNumberName":"V-component_of_CURRENTS"},"data":[0,0,0,0.023,0.023,0.0232,0.0232,0.0258,0.0258,0,0,0,0,0,0,0,0,0,0,0,0.0236,0.0236,0.023,0.0231,0.0232,0.0232,0.0258,0.0258,0,0,0,0,0,0,0,0,0,0,0,0.0236,0.0236,0.0237,0.0231,0.0232,0.0232,0.0258,0.025,0,0,0,0,0,0,0,0,0,0,0.0246,0.0243,0.0236,0.0237,0.0231,0.0232,0.0232,0.025,0.0251,0.0263,0,0.0269,0,0.0262,0.026,0.026,0,0,0,0.023,0.0242,0.0247,0.0237,0.0231,0.0232,0.0231,0.025,0.0251,0.0265,0.0269,0.027,0.0263,0.026,0.0261,0.0336,0.0336,0,0,0.023,0.0232,0.0246,0.0248,0.0239,0.0231,0.0231,0.0251,0.0254,0.0269,0.027,0.0263,0.0261,0.0261,0.0335,0.0336,0,0,0,0.023,0.0232,0.0235,0.0247,0.0245,0.0231,0.0232,0.0253,0.0255,0.027,0.0264,0.0261,0.0261,0.0335,0.0336,0.0413,0,0,0,0.023,0.0232,0.0236,0.0236,0.0244,0.0244,0.0233,0.0254,0.0256,0.0263,0.0261,0.0262,0.0334,0.0335,0.041,0.0451,0,0,0,0.0235,0.0232,0.0236,0.0236,0.0237,0.0243,0.0247,0.0254,0.0252,0.026,0.0262,0.0334,0.0335,0.0407,0.0445,0.0489,0,0,0,0.0232,0.0255,0.0236,0.0264,0.0237,0.0276,0.0246,0.0271,0.0284,0.0261,0.0334,0.0336,0.0406,0.0442,0.0486,0.0541,0.0561,0,0,0.0263,0.0259,0.0278,0.0261,0.0315,0.0275,0.0344,0.0342,0.0308,0.0328,0.0329,0.0411,0.0445,0.0489,0.0619,0.0638,0,0,0,0.0289,0.0306,0.032,0.0342,0.0357,0.0395,0.0382,0.0384,0.0396,0.032,0.0417,0.0436,0.0461,0.0487,0.0502,0.044,0.0342,0.0342,0.0342,0.0336,0.0349,0.0398,0.0424,0.0452,0.0484,0.0512,0.0511,0.0466,0.0481,0.0504,0.0597,0.0626,0.0638,0.0574,0.0504,0.0504,0.0504,0.0505,0.0404,0.0439,0.0465,0.0515,0.0555,0.061,0.0645,0.0629,0.065,0.0588,0.0607,0.0573,0.0658,0.0584,0.051,0.0509,0.0508,0.0508,0.0507,0.044,0.0463,0.0488,0.0569,0.0655,0.0702,0.0802,0.0788,0.073,0.0748,0.0754,0.0753,0.0683,0.0749,0.075,0.075,0.075,0.0751,0.0751,0.0468,0.0499,0.0559,0.0637,0.0706,0.0814,0.0887,0.0912,0.0903,0.0853,0.0853,0.0718,0.0671,0.0656,0.0757,0.0756,0.0755,0.0754,0.0754,0.0522,0.0529,0.0624,0.069,0.0852,0.0998,0.1047,0.1111,0.1093,0.1095,0.0901,0.0905,0.0884,0.0872,0.0862,0.101,0.101,0.101,0.101,0.0553,0.0565,0.0692,0.0811,0.0965,0.1091,0.1257,0.1285,0.115,0.1058,0.097,0.0916,0.0908,0.0883,0.0871,0.0858,0.1001,0.1001,0.1001,0.0597,0.0632,0.0727,0.0839,0.1019,0.1197,0.1363,0.1425,0.1189,0.099,0.0876,0.0877,0.078,0.0773,0.0717,0.0704,0.0675,0,0]}],[{"header":{"parameterUnit":"m.s-1","parameterCategory":2,"la1":30.2992,"la2":30.254,"lo1":-89.0895,"lo2":-89.0443,"dy":0.0025,"dx":0.0025,"nx":19,"ny":19,"refTime":"2026-04-04T09:00:00:Z","depth":"2","parameterNumber":2,"parameterNumberName":"U-component_of_CURRENTS"},"data":[0,0,0,0.1828,0.1829,0.1888,0.1888,0.201,0.2011,0,0,0,0,0,0,0,0,0,0,0,0.1812,0.1812,0.1828,0.1829,0.1888,0.1888,0.201,0.2011,0,0,0,0,0,0,0,0,0,0,0,0.1812,0.1812,0.1813,0.1829,0.1888,0.1888,0.2009,0.1954,0,0,0,0,0,0,0,0,0,0,0.1892,0.1867,0.1812,0.1813,0.183,0.1888,0.1888,0.1951,0.1958,0.1995,0,0.2006,0,0.2009,0.202,0.202,0,0,0,0.1833,0.1861,0.1878,0.1813,0.183,0.1888,0.1863,0.1955,0.1962,0.2004,0.2007,0.2011,0.2011,0.2021,0.2021,0.2124,0.2124,0,0,0.183,0.1824,0.1873,0.1883,0.1849,0.1861,0.1864,0.1959,0.1969,0.2008,0.2014,0.2013,0.2021,0.2022,0.2124,0.2124,0,0,0,0.1818,0.1821,0.1835,0.1879,0.1885,0.1862,0.1866,0.1964,0.1969,0.2015,0.2015,0.2022,0.2024,0.2124,0.2124,0.2148,0,0,0,0.1816,0.1814,0.1834,0.1831,0.1882,0.1918,0.187,0.1963,0.1973,0.2014,0.2022,0.2025,0.2124,0.2124,0.2147,0.215,0,0,0,0.1809,0.1813,0.1821,0.183,0.1853,0.1916,0.1927,0.1965,0.1973,0.202,0.2025,0.2124,0.2124,0.2146,0.2149,0.2157,0,0,0,0.1799,0.1812,0.1821,0.1841,0.1853,0.1906,0.1926,0.1978,0.2019,0.2023,0.2124,0.2124,0.2146,0.2148,0.2156,0.2084,0.2082,0,0,0.1807,0.1813,0.1825,0.1834,0.1873,0.1897,0.1955,0.2018,0.2035,0.2097,0.2099,0.2147,0.2149,0.2157,0.2104,0.2101,0,0,0,0.1822,0.1827,0.1843,0.1867,0.1909,0.1956,0.2007,0.204,0.2097,0.2059,0.2147,0.2147,0.2152,0.2107,0.2105,0.2126,0.2126,0.2125,0.2125,0.1806,0.1829,0.1852,0.1887,0.1932,0.2007,0.205,0.21,0.2124,0.2148,0.2167,0.2189,0.2142,0.2139,0.2171,0.2172,0.2172,0.2172,0.2172,0.18,0.1804,0.1852,0.188,0.1944,0.2004,0.2107,0.2136,0.2192,0.2195,0.2198,0.2135,0.2138,0.2174,0.2173,0.2173,0.2173,0.2173,0.2173,0.1766,0.1773,0.1794,0.1844,0.1917,0.2009,0.2079,0.2157,0.2206,0.222,0.2166,0.2165,0.2199,0.2225,0.2225,0.2225,0.2225,0.2225,0.2225,0.1717,0.1742,0.1751,0.1814,0.1848,0.1938,0.2066,0.2106,0.2161,0.2179,0.2179,0.2207,0.2205,0.2201,0.2226,0.2226,0.2226,0.2226,0.2226,0.1672,0.1684,0.1691,0.1712,0.1784,0.1803,0.1942,0.201,0.2071,0.2078,0.2152,0.2153,0.2136,0.2136,0.213,0.2135,0.2135,0.2135,0.2135,0.1634,0.1644,0.1633,0.1641,0.1675,0.1738,0.1712,0.1771,0.1904,0.1939,0.1947,0.191,0.1919,0.1887,0.1893,0.1881,0.1821,0.1821,0.182,0.1608,0.1609,0.1579,0.1585,0.1614,0.1625,0.1549,0.1484,0.1597,0.1805,0.1868,0.2119,0.2087,0.2092,0.206,0.2063,0.2052,0,0]},{"header":{"parameterUnit":"m.s-1","parameterCategory":2,"la1":30.2992,"la2":30.254,"lo1":-89.0895,"lo2":-89.0443,"dy":0.0025,"dx":0.0025,"nx":19,"ny":19,"refTime":"2026-04-04T09:00:00:Z","depth":"2","parameterNumber":3,"parameterNumberName":"V-component_of_CURRENTS"},"data":[0,0,0,0.0121,0.0121,0.0115,0.0115,0.013,0.013,0,0,0,0,0,0,0,0,0,0,0,0.0131,0.0131,0.0121,0.0121,0.0115,0.0115,0.013,0.013,0,0,0,0,0,0,0,0,0,0,0,0.0131,0.0131,0.0131,0.0121,0.0115,0.0115,0.013,0.0129,0,0,0,0,0,0,0,0,0,0,0.0132,0.0133,0.0131,0.0131,0.0121,0.0115,0.0115,0.0129,0.0129,0.014,0,0.0145,0,0.0136,0.0132,0.0132,0,0,0,0.012,0.0133,0.0135,0.0131,0.0121,0.0115,0.0118,0.0129,0.0129,0.0141,0.0145,0.0145,0.0137,0.0132,0.0132,0.0189,0.0189,0,0,0.0121,0.0125,0.0134,0.0135,0.0128,0.0118,0.0117,0.0129,0.0131,0.0145,0.0145,0.0137,0.0132,0.0133,0.0189,0.0189,0,0,0,0.0122,0.0125,0.0126,0.0135,0.0131,0.0118,0.0117,0.0131,0.0132,0.0145,0.0137,0.0133,0.0133,0.0188,0.0189,0.0256,0,0,0,0.0123,0.0126,0.0127,0.0128,0.0131,0.0126,0.0119,0.0132,0.0132,0.0137,0.0133,0.0133,0.0188,0.0188,0.0253,0.0296,0,0,0,0.0129,0.0127,0.0129,0.0129,0.0126,0.0126,0.0127,0.0131,0.0127,0.0132,0.0133,0.0187,0.0188,0.025,0.0291,0.0319,0,0,0,0.0129,0.0149,0.013,0.0153,0.0126,0.0155,0.0127,0.0144,0.0152,0.0133,0.0188,0.0189,0.0249,0.0288,0.0316,0.0346,0.0362,0,0,0.0156,0.0152,0.0168,0.0151,0.0192,0.0155,0.0207,0.0201,0.0171,0.0184,0.0185,0.0254,0.029,0.0319,0.0406,0.042,0,0,0,0.0178,0.0193,0.0202,0.0218,0.0226,0.0251,0.0236,0.0235,0.0241,0.018,0.0256,0.0277,0.0293,0.0305,0.0316,0.0194,0.0194,0.0193,0.0193,0.0222,0.023,0.0269,0.0285,0.0305,0.0322,0.0341,0.0335,0.0298,0.0308,0.0333,0.0405,0.0419,0.0427,0.0326,0.0327,0.0327,0.0327,0.0327,0.0281,0.0309,0.0325,0.0364,0.0389,0.043,0.045,0.0433,0.045,0.0401,0.0412,0.0377,0.0444,0.0333,0.0332,0.0331,0.033,0.033,0.033,0.0314,0.0331,0.035,0.0412,0.0478,0.0509,0.0583,0.0568,0.0521,0.0536,0.0525,0.0524,0.0445,0.0533,0.0534,0.0534,0.0534,0.0534,0.0535,0.0341,0.0364,0.0413,0.0474,0.0527,0.0612,0.0659,0.0673,0.0657,0.0614,0.0613,0.0474,0.0467,0.0456,0.054,0.0539,0.0538,0.0538,0.0537,0.0388,0.0395,0.0472,0.0524,0.0652,0.0762,0.079,0.0823,0.0802,0.0802,0.0648,0.0644,0.0624,0.0614,0.0607,0.0724,0.0724,0.0724,0.0724,0.0416,0.0426,0.053,0.0624,0.0744,0.0836,0.0946,0.0937,0.0854,0.0771,0.0769,0.0728,0.0719,0.0701,0.0689,0.0681,0.0819,0.0819,0.0819,0.0453,0.0481,0.0557,0.0645,0.0785,0.0915,0.102,0.1003,0.0852,0.082,0.0763,0.0735,0.0665,0.0656,0.0616,0.0602,0.0584,0,0]}],[{"header":{"parameterUnit":"m.s-1","parameterCategory":2,"la1":30.2992,"la2":30.254,"lo1":-89.0895,"lo2":-89.0443,"dy":0.0025,"dx":0.0025,"nx":19,"ny":19,"refTime":"2026-04-04T09:00:00:Z","depth":"4","parameterNumber":2,"parameterNumberName":"U-component_of_CURRENTS"},"data":[0,0,0,0.126,0.1261,0.1292,0.1292,0.1345,0.1345,0,0,0,0,0,0,0,0,0,0,0,0.1257,0.1257,0.126,0.1261,0.1292,0.1292,0.1345,0.1345,0,0,0,0,0,0,0,0,0,0,0,0.1256,0.1257,0.1258,0.1261,0.1292,0.1292,0.1344,0.1315,0,0,0,0,0,0,0,0,0,0,0.1282,0.1284,0.1257,0.1258,0.1261,0.1292,0.1292,0.1314,0.1317,0.1337,0,0.1356,0,0.1354,0.135,0.135,0,0,0,0.1252,0.1281,0.1288,0.1258,0.1262,0.1292,0.1275,0.1316,0.132,0.1341,0.1356,0.1358,0.1354,0.135,0.1351,0.1447,0.1447,0,0,0.125,0.1261,0.1285,0.1291,0.1289,0.1275,0.1277,0.1318,0.1332,0.1357,0.1359,0.1355,0.1351,0.1351,0.1446,0.1447,0,0,0,0.1251,0.126,0.1265,0.1289,0.1295,0.1276,0.1278,0.133,0.1332,0.136,0.1356,0.1351,0.1352,0.1446,0.1446,0.147,0,0,0,0.125,0.1261,0.1265,0.1271,0.1295,0.1312,0.1289,0.1329,0.1333,0.1356,0.1351,0.1353,0.1445,0.1446,0.1468,0.1481,0,0,0,0.1252,0.1261,0.127,0.1272,0.1288,0.1311,0.1315,0.1329,0.1332,0.135,0.1353,0.1445,0.1446,0.1466,0.1478,0.1522,0,0,0,0.1252,0.1265,0.1271,0.1284,0.1288,0.1298,0.1314,0.1334,0.1351,0.1352,0.1445,0.1446,0.1466,0.1477,0.152,0.1319,0,0,0,0.126,0.1267,0.1271,0.1275,0.1276,0.1291,0.1317,0.1353,0.1379,0.1429,0.1432,0.1469,0.1478,0.1522,0.1397,0,0,0,0,0.1266,0.1272,0.1272,0.1281,0.1288,0.1314,0.1341,0.1377,0.1444,0.1397,0.1488,0.1494,0.1521,0.1398,0.1453,0.1452,0.1452,0.1452,0.1452,0.1272,0.127,0.1275,0.1279,0.1296,0.1339,0.1381,0.1443,0.1456,0.1505,0.1528,0.1597,0.1468,0.1542,0.1542,0.1543,0.1543,0.1543,0.1543,0.126,0.1252,0.1276,0.1286,0.1321,0.136,0.1443,0.1483,0.1581,0.1573,0.1598,0.1448,0.1546,0.1545,0.1545,0.1544,0.1544,0.1544,0.1544,0.1236,0.1233,0.126,0.1285,0.1338,0.1392,0.146,0.1543,0.1613,0.1649,0.1537,0.1626,0.1609,0.1672,0.1672,0.1672,0.1673,0.1673,0.1673,0.1195,0.1217,0.1238,0.1282,0.1311,0.1375,0.1487,0.1532,0.1614,0.1554,0.167,0.164,0.1636,0.1617,0.1677,0.1676,0.1676,0.1675,0.1675,0.1143,0.1178,0.1189,0.1218,0.1267,0.1292,0.142,0.1452,0.1498,0.1489,0.1503,0.151,0.1488,0.1488,0.1463,0.1479,0.1476,0.1474,0,0.1112,0.1128,0.1137,0.1146,0.1152,0.1225,0.1216,0.1283,0.1364,0.1323,0.1515,0.153,0.1533,0.1507,0.1503,0.1472,0,0,0,0.1081,0.1089,0.1073,0.1088,0.108,0.1106,0.1201,0.1183,0.1351,0.1322,0.1415,0.143,0.1562,0.1689,0.1673,0.1668,0.1638,0,0]},{"header":{"parameterUnit":"m.s-1","parameterCategory":2,"la1":30.2992,"la2":30.254,"lo1":-89.0895,"lo2":-89.0443,"dy":0.0025,"dx":0.0025,"nx":19,"ny":19,"refTime":"2026-04-04T09:00:00:Z","depth":"4","parameterNumber":3,"parameterNumberName":"V-component_of_CURRENTS"},"data":[0,0,0,0.0127,0.0127,0.0146,0.0146,0.0185,0.0186,0,0,0,0,0,0,0,0,0,0,0,0.0127,0.0127,0.0127,0.0127,0.0146,0.0146,0.0185,0.0186,0,0,0,0,0,0,0,0,0,0,0,0.0127,0.0127,0.0127,0.0127,0.0146,0.0146,0.0185,0.0168,0,0,0,0,0,0,0,0,0,0,0.0148,0.0143,0.0127,0.0127,0.0127,0.0146,0.0146,0.0167,0.0169,0.018,0,0.0186,0,0.0182,0.0188,0.0188,0,0,0,0.0131,0.0142,0.0146,0.0127,0.0127,0.0146,0.0138,0.0168,0.0171,0.0183,0.0186,0.0187,0.0183,0.0189,0.0189,0.0233,0.0233,0,0,0.013,0.013,0.0145,0.0148,0.0136,0.0138,0.0139,0.017,0.0174,0.0186,0.0188,0.0184,0.0189,0.0189,0.0233,0.0233,0,0,0,0.0124,0.013,0.0134,0.0147,0.0147,0.0138,0.014,0.0173,0.0174,0.0188,0.0184,0.0189,0.019,0.0233,0.0233,0.028,0,0,0,0.0124,0.0126,0.0133,0.0134,0.0146,0.0157,0.0142,0.0172,0.0175,0.0184,0.0189,0.019,0.0233,0.0233,0.0278,0.0304,0,0,0,0.0125,0.0126,0.0129,0.0134,0.0139,0.0156,0.016,0.0173,0.0173,0.0188,0.019,0.0232,0.0233,0.0276,0.0301,0.0315,0,0,0,0.0123,0.0139,0.0129,0.0151,0.0139,0.0174,0.0159,0.0186,0.0203,0.0189,0.0233,0.0233,0.0276,0.03,0.0313,0.0306,0,0,0,0.0144,0.0142,0.0156,0.0147,0.0188,0.0171,0.0218,0.023,0.0211,0.0224,0.0225,0.0279,0.0301,0.0314,0.0333,0,0,0,0,0.0162,0.0175,0.0186,0.0205,0.0221,0.0248,0.0252,0.0251,0.0258,0.0221,0.0275,0.0288,0.0294,0.0285,0.0235,0.0235,0.0235,0.0235,0.0235,0.0193,0.0203,0.0238,0.0258,0.0282,0.0306,0.0322,0.0317,0.03,0.0301,0.0323,0.0362,0.0354,0.0315,0.0315,0.0315,0.0316,0.0316,0.0316,0.0236,0.0258,0.0279,0.0316,0.0343,0.0382,0.0395,0.0385,0.0389,0.036,0.0364,0.0332,0.032,0.032,0.0319,0.0318,0.0318,0.0318,0.0317,0.0257,0.0271,0.0292,0.0349,0.0406,0.0437,0.0485,0.0475,0.0436,0.0444,0.0419,0.0391,0.039,0.0442,0.0442,0.0443,0.0443,0.0443,0.0443,0.027,0.0293,0.0335,0.0392,0.0438,0.0502,0.0537,0.0537,0.0508,0.0476,0.0458,0.0404,0.04,0.0397,0.0446,0.0445,0.0445,0.0445,0.0444,0.0295,0.0307,0.0368,0.0413,0.0517,0.0562,0.0594,0.058,0.0573,0.0544,0.0483,0.048,0.0461,0.0456,0.0454,0.0522,0.0522,0.0522,0,0.031,0.0321,0.0401,0.0474,0.0555,0.06,0.0613,0.061,0.0558,0.0544,0.0561,0.0493,0.049,0.0468,0.0463,0.0461,0,0,0,0.0331,0.0353,0.0407,0.0478,0.0569,0.0602,0.0618,0.06,0.0569,0.0561,0.0525,0.0524,0.0503,0.0454,0.0418,0.0413,0.0406,0,0]}]]